Aérodrome :
LOGIN :

S'inscrire | Disclaimer

   EN    FR    IT 

 










Légende :    VFR   VFR Marginal   IFR   IFR Intensif   IFR Très Intensif
Visi : 
Plafond : 
>= 8 km
>= 3000ft
5 à 8 km
1000 à 3000 ft
1500m à 5 km
500 à 1000 ft
800 à 1500m
200 à 500 ft
< 800m
< 200 ft
Symboles :   Orages  Brouillard  Fortes neiges  Fortes précipitations  Vent > 20 kt
SIGMETs :   Divers  Orages  Givrage  Turbulence  Onde Orograph.  Cendres Volcan.







- Altitude de l'aérodrome : 1989 ft
- Code IATA : KLV


LKKV - Karlovy Vary

DERNIER METAR :
  • 191830Z 25004KT CAVOK 15/07 Q1020

METARs EXPIRÉS :
  • 191800Z 25004KT 210V270 CAVOK 16/07 Q1020
  • 191730Z 26006KT 230V300 CAVOK 17/07 Q1019
  • 191700Z 26008KT 230V290 CAVOK 18/07 Q1019
  • 191630Z 27007KT 230V300 CAVOK 18/07 Q1020
  • 191600Z 26006KT 220V290 9999 SCT048 19/07 Q1020

TAF TAF LKKV
Valide du 19 à 18h jusqu'au 21 à 00h UTC


191700Z 1918/2100 26004KT 9999 SCT026
TEMPO 1918/2002 VRB02KT
TEMPO 2009/2018 32014KT SHRA BKN026
Pas de NOTAMs connus pour ce terrain.



MET'MAP, la Météo Aéronautique d'un coup d'oeil ! - Copyright ORBIFLY Décembre 2007 - Disclaimer

ORBIFLY MET'MAP TEAM :

Programmation & Développement : Alexandra Zaïnal
Conception & Développement : Baudouin d'Aumeries
Co-Programmation & Développement : Marc-Olivier Méhu
Soutien technique & logistique : Manuel Goepfert

Contact : metmap@orbifly.com




SOURCES & CREDITS :

   NOAA